Location: Vancouver
(49.2500°N, 123.1330°W)
Time: 14:48:41
(UTC-07:00)

ISS - All Passes

Search period start: 26 July 2016 00:00
Search period end: 05 August 2016 00:00
Orbit: 401 x 404 km, 51.6° (Epoch: 26 July)

Date Brightness Start Highest point End Pass type
(mag) Time Alt. Az. Time Alt. Az. Time Alt. Az.
26 Jul - 00:05:26 10° WSW 00:08:41 88° S 00:11:58 10° ENE visible
26 Jul - 01:42:05 10° WNW 01:45:18 53° N 01:48:31 10° E visible
26 Jul - 03:18:37 10° WNW 03:21:54 88° SSW 03:25:10 10° ESE visible
26 Jul - 04:55:28 10° W 04:58:01 21° SW 05:00:33 10° SSE visible
26 Jul - 21:38:15 10° SSE 21:39:51 13° SE 21:41:27 10° ESE visible
26 Jul - 23:12:33 10° SW 23:15:46 61° SSE 23:18:59 10° ENE visible
27 Jul - 00:49:02 10° W 00:52:16 56° N 00:55:29 10° ENE visible
27 Jul - 02:25:39 10° WNW 02:28:55 70° NNE 02:32:10 10° E visible
27 Jul - 04:02:13 10° W 04:05:13 33° SSW 04:08:11 10° SSE visible
27 Jul - 22:19:49 10° SW 22:22:53 38° SSE 22:25:57 10° E visible
27 Jul - 23:55:58 10° W 23:59:13 65° NNW 00:02:29 10° ENE visible
28 Jul - 01:32:39 10° WNW 01:35:53 58° N 01:39:07 10° E visible
28 Jul - 03:09:09 10° WNW 03:12:20 53° SSW 03:15:32 10° SE visible
28 Jul - 04:47:11 10° WSW 04:48:11 11° SW 04:49:10 10° SSW visible
28 Jul - 21:27:20 10° SSW 21:30:02 24° SE 21:32:45 10° E daylight
28 Jul - 23:02:57 10° WSW 23:06:12 84° NNW 23:09:29 10° ENE visible
29 Jul - 00:39:37 10° WNW 00:42:49 53° N 00:46:03 10° E visible
29 Jul - 02:16:07 10° WNW 02:19:24 80° SSW 02:22:39 10° ESE visible
29 Jul - 03:53:06 10° W 03:55:27 18° SW 03:57:48 10° S night (unlit)
29 Jul - 20:35:18 10° S 20:37:15 15° SE 20:39:13 10° E daylight
29 Jul - 22:09:59 10° WSW 22:13:13 68° SSE 22:16:29 10° ENE visible
29 Jul - 23:46:31 10° W 23:49:45 54° N 23:52:58 10° ENE visible
30 Jul - 01:23:07 10° WNW 01:26:23 75° NNE 01:29:39 10° ESE visible
30 Jul - 02:59:44 10° W 03:02:38 29° SW 03:05:31 10° SSE night (unlit)
30 Jul - 21:17:10 10° SW 21:20:16 44° SSE 21:23:24 10° ENE daylight
30 Jul - 22:53:25 10° W 22:56:40 62° N 22:59:55 10° ENE visible
31 Jul - 00:30:05 10° WNW 00:33:20 60° N 00:36:34 10° E visible
31 Jul - 02:06:35 10° WNW 02:09:45 47° SSW 02:12:53 10° SE visible
31 Jul - 20:24:33 10° SSW 20:27:23 27° SE 20:30:13 10° E daylight
31 Jul - 22:00:20 10° WSW 22:03:36 78° NNW 22:06:52 10° ENE visible
31 Jul - 23:37:01 10° WNW 23:40:14 54° N 23:43:27 10° E visible
01 Aug - 01:13:31 10° WNW 01:16:47 73° SSW 01:20:01 10° ESE visible
01 Aug - 02:50:39 10° W 02:52:46 16° SW 02:54:53 10° S night (unlit)
01 Aug - 19:32:20 10° S 19:34:33 17° SE 19:36:46 10° E daylight
01 Aug - 21:07:18 10° WSW 21:10:33 76° SSE 21:13:49 10° ENE daylight
01 Aug - 22:43:54 10° W 22:47:07 54° N 22:50:20 10° ENE visible
02 Aug - 00:20:28 10° WNW 00:23:45 81° NNE 00:27:00 10° ESE visible
02 Aug - 01:57:09 10° W 01:59:56 26° SW 02:02:43 10° SSE visible
02 Aug - 18:41:26 10° SE 18:41:46 10° SE 18:42:06 10° SE daylight
02 Aug - 20:14:24 10° SW 20:17:34 49° SSE 20:20:45 10° ENE daylight
02 Aug - 21:50:46 10° W 21:54:00 59° N 21:57:14 10° ENE visible
02 Aug - 23:27:24 10° WNW 23:30:39 63° N 23:33:53 10° E visible
03 Aug - 01:03:55 10° WNW 01:07:01 41° SSW 01:10:07 10° SE visible
03 Aug - 19:21:41 10° SSW 19:24:37 31° SE 19:27:33 10° E daylight
03 Aug - 20:57:37 10° W 21:00:53 73° NNW 21:04:08 10° ENE daylight
03 Aug - 22:34:18 10° WNW 22:37:31 55° N 22:40:45 10° E visible
04 Aug - 00:10:47 10° WNW 00:14:02 65° SSW 00:17:16 10° ESE visible
04 Aug - 01:48:09 10° WSW 01:49:58 14° SW 01:51:47 10° S night (unlit)
04 Aug - 18:29:17 10° S 18:31:43 19° SE 18:34:09 10° E daylight
04 Aug - 20:04:32 10° WSW 20:07:47 83° SSE 20:11:04 10° ENE daylight
04 Aug - 21:41:09 10° W 21:44:22 53° N 21:47:35 10° ENE visible
04 Aug - 23:17:42 10° WNW 23:20:59 87° NNE 23:24:14 10° ESE visible
